period_start,C,m1,H,J0,J1,J2,J3,J4,J5,JA,JB,JC,JD,JJ,JK,JN,#
2017-06-04 00:03:29,0.00,1.98,0.00,23.39,27.67,30.47,13.99,46.23,1026.01,2027.08,2676.98,2606.99,2947.07,600.05,600.86,58.36,0000 0000 0000 0000 000000
2017-06-04 00:08:30,0.00,1.98,0.00,23.40,27.65,30.43,14.03,46.23,1025.91,2027.07,2676.98,2606.99,2947.05,599.70,600.35,58.41,0000 0000 0000 0000 000000
2017-06-04 00:13:31,0.02,1.98,0.00,23.40,27.65,30.42,14.07,46.37,1025.90,2027.17,2676.98,2606.99,2947.06,599.97,600.64,58.46,0000 0000 0000 0000 000000
2017-06-04 00:18:32,-0.01,1.98,0.00,23.40,27.65,30.41,14.07,46.24,1025.90,2027.23,2676.94,2606.99,2947.04,600.13,600.78,58.51,0000 0000 0000 0000 000000
2017-06-04 00:23:33,-0.01,1.98,0.00,23.40,27.63,30.39,14.05,46.23,1025.90,2027.12,2676.92,2606.98,2947.01,599.62,600.25,58.56,0000 0000 0000 0000 000000
2017-06-04 00:28:34,0.02,1.98,0.00,23.40,27.62,30.37,14.09,46.29,1025.90,2027.27,2676.81,2606.99,2947.02,600.06,600.67,58.61,0000 0000 0000 0000 000000
2017-06-04 00:33:36,0.01,1.98,0.00,23.39,27.62,30.34,13.98,46.27,1025.90,2027.41,2676.72,2606.99,2947.02,599.57,600.28,58.66,0000 0000 0000 0000 000000
2017-06-04 00:38:37,0.01,1.98,0.00,23.39,27.62,30.36,13.99,46.20,1025.89,2027.48,2676.12,2606.97,2947.00,599.84,600.47,58.71,0000 0000 0000 0000 000000
2017-06-04 00:43:38,-0.01,1.98,0.00,23.39,27.62,30.35,14.00,46.15,1025.88,2027.40,2676.02,2606.97,2947.00,600.18,600.78,58.76,0000 0000 0000 0000 000000
2017-06-04 00:48:39,0.01,1.98,0.00,23.40,27.60,30.33,14.11,46.24,1025.88,2027.45,2676.01,2606.93,2947.00,600.46,601.05,58.81,0000 0000 0000 0000 000000
2017-06-04 00:53:41,0.01,1.98,0.00,23.42,27.60,30.33,14.09,46.26,1025.89,2027.53,2676.00,2606.90,2947.00,600.23,600.75,58.86,0000 0000 0000 0000 000000
2017-06-04 00:58:42,0.02,1.98,0.00,23.43,27.60,30.31,13.97,46.22,1025.88,2027.77,2676.00,2606.88,2947.00,599.82,600.45,58.91,0000 0000 0000 0000 000000
2017-06-04 01:03:43,0.02,1.98,0.00,23.44,27.60,30.32,14.02,46.17,1025.87,2027.84,2675.99,2606.64,2946.99,599.71,600.38,58.97,0000 0000 0000 0000 000000
2017-06-04 01:08:44,-0.00,1.98,0.00,23.45,27.60,30.32,14.08,46.18,1025.84,2027.87,2675.99,2606.55,2946.98,600.49,600.86,59.02,0000 0000 0000 0000 000000
2017-06-04 01:13:46,0.00,1.98,0.00,23.47,27.60,30.32,14.06,46.23,1025.83,2027.82,2675.97,2606.42,2946.97,599.96,600.45,59.07,0000 0000 0000 0000 000000
2017-06-04 01:18:47,0.01,1.98,0.00,23.47,27.61,30.31,14.02,46.13,1025.74,2027.80,2675.95,2606.12,2946.94,600.09,600.56,59.12,0000 0000 0000 0000 000000
2017-06-04 01:23:48,-0.00,1.98,0.00,23.49,27.62,30.31,14.12,46.29,1025.76,2027.78,2675.94,2606.09,2946.84,600.12,600.47,59.17,0000 0000 0000 0000 000000
2017-06-04 01:28:49,0.01,1.98,0.00,23.50,27.62,30.33,14.07,46.26,1025.81,2027.67,2675.81,2606.05,2946.53,599.88,600.44,59.22,0000 0000 0000 0000 000000
2017-06-04 01:33:51,-0.00,1.98,0.00,23.52,27.62,30.32,14.05,46.18,1025.83,2027.60,2675.29,2606.01,2946.17,600.21,600.60,59.27,0000 0000 0000 0000 000000
2017-06-04 01:38:52,0.01,1.98,0.00,23.53,27.63,30.32,14.05,46.13,1025.66,2027.54,2675.20,2606.00,2946.05,599.74,599.92,59.32,0000 0000 0000 0000 000000
2017-06-04 01:43:53,-0.02,1.98,0.00,23.54,27.65,30.34,14.05,46.25,1025.61,2027.43,2675.08,2606.00,2946.02,599.78,600.02,59.37,0000 0000 0000 0000 000000
2017-06-04 01:48:54,0.02,1.98,0.00,23.57,27.65,30.33,13.99,46.15,1025.68,2027.48,2675.01,2606.00,2946.00,600.07,600.26,59.42,0000 0000 0000 0000 000000
2017-06-04 01:53:55,-0.02,1.98,0.00,23.58,27.66,30.35,14.02,46.33,1025.62,2027.42,2675.00,2605.99,2946.00,600.07,600.13,59.47,0000 0000 0000 0000 000000
2017-06-04 01:58:56,-0.00,1.98,0.00,23.60,27.67,30.34,14.12,46.34,1025.64,2027.37,2675.00,2605.99,2946.00,600.30,600.41,59.52,0000 0000 0000 0000 000000
2017-06-04 02:03:58,-0.02,1.98,0.00,23.63,27.69,30.37,14.04,46.23,1025.55,2027.16,2675.00,2605.97,2945.99,600.19,600.27,59.57,0000 0000 0000 0000 000000
2017-06-04 02:08:59,-0.00,1.98,0.00,23.64,27.70,30.37,13.99,46.29,1025.49,2027.06,2675.00,2605.88,2945.96,600.14,600.24,59.62,0000 0000 0000 0000 000000
2017-06-04 02:14:00,0.03,1.98,0.00,23.65,27.72,30.39,13.97,46.38,1025.55,2027.03,2674.85,2605.36,2945.61,599.49,599.51,59.67,0000 0000 0000 0000 000000
2017-06-04 02:19:01,0.03,1.98,0.00,23.68,27.72,30.38,14.03,46.41,1025.46,2027.02,2674.18,2605.05,2945.12,599.72,599.59,59.72,0000 0000 0000 0000 000000
2017-06-04 02:24:03,0.00,1.98,0.00,23.68,27.75,30.40,13.99,46.38,1025.47,2027.00,2674.01,2605.00,2945.02,599.65,599.48,59.77,0000 0000 0000 0000 000000
2017-06-04 02:29:04,0.00,1.98,0.00,23.70,27.76,30.40,14.02,46.18,1025.45,2027.00,2674.00,2605.00,2945.00,600.27,599.91,59.82,0000 0000 0000 0000 000000
2017-06-04 02:34:05,0.00,1.98,0.00,23.71,27.77,30.42,14.01,46.24,1025.43,2027.00,2674.00,2605.00,2945.00,599.95,599.63,59.87,0000 0000 0000 0000 000000
2017-06-04 02:39:06,0.00,1.98,0.00,23.73,27.79,30.43,14.02,46.27,1025.43,2027.00,2673.99,2605.00,2944.98,600.25,599.91,59.93,0000 0000 0000 0000 000000
2017-06-04 02:44:08,0.00,1.98,0.00,23.77,27.80,30.44,14.06,46.20,1025.42,2027.00,2673.88,2604.97,2944.86,600.53,600.29,59.98,0000 0000 0000 0000 000000
2017-06-04 02:49:09,0.01,1.98,0.00,23.79,27.82,30.46,14.04,46.29,1025.42,2027.00,2673.69,2604.93,2944.69,600.10,599.57,60.03,0000 0000 0000 0000 000000
2017-06-04 02:54:10,0.01,1.99,0.00,23.81,27.83,30.46,13.96,46.35,1025.41,2027.00,2673.35,2604.77,2944.30,599.69,599.29,60.08,0000 0000 0000 0000 000000
2017-06-04 02:59:11,0.02,1.66,0.00,23.82,27.85,30.48,12.23,40.67,1025.41,2027.32,2809.04,2687.26,3047.12,531.20,530.78,0.00,0000 0000 0000 0000 000002
2017-06-04 03:04:13,0.00,0.00,0.00,23.84,27.87,30.50,13.93,46.19,1025.41,2028.42,3483.57,3100.28,3562.61,599.81,599.30,0.02,0000 0000 0000 0000 000000
2017-06-04 03:09:14,0.00,0.00,0.00,23.87,27.87,30.50,13.99,46.23,1025.41,2028.16,3481.43,3099.92,3561.63,600.09,599.50,0.07,0000 0000 0000 0000 000000
2017-06-04 03:14:15,0.00,0.00,0.00,23.90,27.89,30.51,13.98,46.11,1025.41,2028.04,3480.85,3099.25,3560.96,599.84,599.21,0.12,0000 0000 0000 0000 000000
2017-06-04 03:19:16,0.00,0.00,0.00,23.92,27.90,30.53,13.99,46.11,1025.40,2028.02,3480.09,3099.02,3560.17,600.13,599.45,0.17,0000 0000 0000 0000 000000
2017-06-04 03:24:17,0.00,0.00,0.00,23.95,27.92,30.56,13.93,46.06,1025.37,2028.01,3479.98,3099.00,3559.99,599.74,599.07,0.22,0000 0000 0000 0000 000000
2017-06-04 03:29:18,0.01,0.00,0.00,23.97,27.92,30.57,14.04,46.08,1025.37,2028.01,3479.34,3098.96,3559.31,600.06,599.29,0.27,0000 0000 0000 0000 000000
2017-06-04 03:34:19,0.00,0.00,0.00,23.98,27.95,30.58,14.02,46.08,1025.36,2028.00,3479.01,3098.86,3559.00,600.23,599.37,0.32,0000 0000 0000 0000 000000
2017-06-04 03:39:21,0.01,0.00,0.00,24.01,27.96,30.60,14.04,46.08,1025.32,2028.00,3478.97,3098.37,3558.88,599.93,599.03,0.37,0000 0000 0000 0000 000000
2017-06-04 03:44:22,0.02,0.00,0.00,24.04,27.97,30.62,13.96,46.02,1025.36,2028.00,3478.54,3098.03,3558.21,599.91,599.03,0.42,0000 0000 0000 0000 000000
2017-06-04 03:49:23,0.00,0.00,0.00,24.06,27.99,30.64,13.94,46.02,1025.35,2028.00,3478.04,3098.01,3558.00,600.10,599.16,0.47,0000 0000 0000 0000 000000
2017-06-04 03:54:25,0.00,0.00,0.00,24.07,28.00,30.64,14.01,45.95,1025.32,2027.98,3478.00,3098.00,3557.92,600.13,599.15,0.52,0000 0000 0000 0000 000000
2017-06-04 03:59:26,0.01,0.00,0.00,24.10,28.02,30.66,14.03,45.92,1025.31,2027.97,3477.97,3097.98,3557.52,600.00,598.84,0.57,0000 0000 0000 0000 000000
2017-06-04 04:04:27,0.01,0.00,0.00,24.13,28.03,30.68,13.87,45.86,1025.28,2027.91,3477.59,3097.89,3557.06,599.71,598.57,0.62,0000 0000 0000 0000 000000
2017-06-04 04:09:29,-0.02,0.00,0.00,24.16,28.05,30.70,13.96,45.97,1025.20,2027.63,3477.10,3097.42,3557.00,600.09,598.75,0.67,0000 0000 0000 0000 000000
2017-06-04 04:14:30,0.01,0.00,0.00,24.20,28.07,30.71,13.99,45.73,1025.01,2027.57,3477.00,3097.13,3556.97,600.17,598.74,0.72,0000 0000 0000 0000 000000
2017-06-04 04:19:31,0.00,0.00,0.00,24.24,28.09,30.74,13.97,45.81,1025.03,2027.49,3477.00,3097.05,3556.76,600.02,598.57,0.77,0000 0000 0000 0000 000000
2017-06-04 04:24:33,-0.03,0.00,0.00,24.27,28.11,30.75,13.93,45.86,1025.03,2027.13,3476.97,3097.00,3556.08,599.85,598.31,0.82,0000 0000 0000 0000 000000
2017-06-04 04:29:34,0.00,0.00,0.00,24.30,28.13,30.78,14.11,45.89,1024.95,2027.09,3476.82,3097.00,3556.02,600.33,598.68,0.87,0000 0000 0000 0000 000000
2017-06-04 04:34:35,0.00,0.00,0.00,24.34,28.15,30.80,13.98,45.78,1024.94,2027.03,3476.14,3096.99,3556.00,600.05,598.18,0.92,0000 0000 0000 0000 000000
2017-06-04 04:39:37,0.01,0.00,0.00,24.38,28.17,30.80,13.95,45.77,1024.92,2027.01,3476.00,3096.85,3555.76,599.95,597.97,0.97,0000 0000 0000 0000 000000
2017-06-04 04:44:38,0.02,0.00,0.00,24.41,28.19,30.82,13.95,45.78,1024.92,2027.00,3475.98,3096.29,3555.13,599.95,597.96,1.02,0000 0000 0000 0000 000000
2017-06-04 04:49:39,0.01,0.01,0.00,24.44,28.21,30.84,13.92,45.68,1024.92,2027.00,3475.84,3096.04,3555.01,600.17,598.16,1.07,0000 0000 0000 0000 000000
2017-06-04 04:54:40,0.01,0.01,0.00,24.46,28.23,30.87,13.89,45.78,1024.92,2027.00,3475.19,3096.00,3554.98,599.93,597.80,1.12,0000 0000 0000 0000 000000
2017-06-04 04:59:42,0.01,0.01,0.00,24.50,28.26,30.90,13.96,45.81,1024.92,2026.99,3475.00,3095.98,3554.49,600.11,597.99,1.17,0000 0000 0000 0000 000000
2017-06-04 05:04:43,0.00,0.01,0.00,24.53,28.28,30.92,13.99,45.77,1024.92,2026.97,3474.99,3095.96,3554.06,600.28,597.92,1.22,0000 0000 0000 0000 000000
2017-06-04 05:09:44,0.02,0.01,0.00,24.56,28.31,30.95,13.92,45.73,1024.89,2026.94,3474.65,3095.34,3554.00,599.89,597.77,1.27,0000 0000 0000 0000 000000
2017-06-04 05:14:46,-0.02,0.01,0.00,24.59,28.34,30.98,13.95,45.79,1024.83,2026.53,3474.05,3095.01,3553.69,599.95,597.59,1.32,0000 0000 0000 0000 000000
2017-06-04 05:19:47,-0.01,0.01,0.00,24.62,28.37,31.00,13.95,45.69,1024.78,2026.23,3473.99,3095.00,3553.10,599.91,597.47,1.37,0000 0000 0000 0000 000000
2017-06-04 05:24:48,-0.01,0.01,0.00,24.65,28.40,31.03,13.85,45.63,1024.83,2026.07,3473.88,3094.96,3553.00,599.88,597.30,1.42,0000 0000 0000 0000 000000
2017-06-04 05:29:50,0.02,0.01,0.00,24.69,28.42,31.05,13.85,45.66,1024.83,2026.02,3473.17,3094.51,3552.91,599.73,597.19,1.47,0000 0000 0000 0000 000000
2017-06-04 05:34:52,0.01,0.01,0.00,24.71,28.45,31.08,13.90,45.75,1024.75,2026.00,3473.01,3094.04,3552.21,599.87,597.18,1.52,0000 0000 0000 0000 000000
2017-06-04 05:39:53,0.00,0.01,0.00,24.75,28.48,31.11,13.84,45.63,1024.65,2026.00,3472.86,3094.00,3552.00,599.56,596.79,1.57,0000 0000 0000 0000 000000
2017-06-04 05:44:54,0.01,0.01,0.00,24.79,28.51,31.13,13.92,45.68,1024.49,2025.99,3472.32,3093.94,3551.91,600.04,597.04,1.62,0000 0000 0000 0000 000000
2017-06-04 05:49:55,0.02,0.01,0.00,24.81,28.54,31.16,13.87,45.67,1024.51,2025.97,3472.01,3093.35,3551.22,599.79,596.76,1.67,0000 0000 0000 0000 000000
2017-06-04 05:54:57,-0.01,0.01,0.00,24.84,28.57,31.20,13.93,45.72,1024.46,2025.79,3471.90,3093.03,3550.99,600.20,597.01,1.73,0000 0000 0000 0000 000000
2017-06-04 05:59:58,-0.03,0.01,0.00,24.87,28.61,31.22,13.89,45.61,1024.49,2025.18,3471.16,3092.99,3550.35,599.91,596.86,1.78,0000 0000 0000 0000 000000
2017-06-04 06:04:59,0.00,0.01,0.00,24.89,28.63,31.26,13.86,45.68,1024.45,2025.03,3471.00,3092.88,3550.02,599.85,596.65,1.83,0000 0000 0000 0000 000000
2017-06-04 06:10:00,0.02,0.01,0.00,24.93,28.66,31.27,13.90,45.63,1024.46,2025.02,3470.83,3092.17,3549.97,599.77,596.49,1.88,0000 0000 0000 0000 000000
2017-06-04 06:15:01,0.02,0.01,0.00,24.96,28.70,31.31,13.94,45.62,1024.46,2025.00,3470.07,3092.00,3549.31,600.20,597.00,1.93,0000 0000 0000 0000 000000
2017-06-04 06:20:03,0.00,0.01,0.00,24.99,28.72,31.33,13.90,45.56,1024.47,2024.99,3469.97,3091.95,3549.00,600.05,596.63,1.98,0000 0000 0000 0000 000000
2017-06-04 06:25:04,0.03,0.01,0.00,25.02,28.75,31.37,13.92,45.82,1024.52,2024.99,3469.59,3091.48,3548.97,599.88,596.59,2.03,0000 0000 0000 0000 000000
2017-06-04 06:30:05,0.01,0.01,0.00,25.04,28.78,31.40,13.89,45.76,1024.47,2024.96,3469.06,3091.05,3548.35,600.01,596.54,2.08,0000 0000 0000 0000 000000
2017-06-04 06:35:06,-0.02,0.01,0.00,25.07,28.81,31.43,13.90,45.72,1024.45,2024.82,3469.01,3091.01,3548.07,600.09,596.49,2.13,0000 0000 0000 0000 000000
2017-06-04 06:40:07,-0.01,0.01,0.00,25.08,28.83,31.46,13.97,45.67,1024.44,2024.55,3469.00,3091.00,3548.00,600.32,596.66,2.18,0000 0000 0000 0000 000000
2017-06-04 06:45:09,-0.04,0.01,0.00,25.11,28.86,31.48,13.96,45.77,1024.44,2024.12,3468.95,3090.98,3547.95,600.34,596.70,2.23,0000 0000 0000 0000 000000
2017-06-04 06:50:10,0.03,0.01,0.00,25.14,28.88,31.52,13.88,45.67,1024.43,2024.02,3468.34,3090.59,3547.41,600.53,596.75,2.28,0000 0000 0000 0000 000000
2017-06-04 06:55:11,0.01,0.01,0.00,25.16,28.91,31.54,13.94,45.75,1024.43,2024.00,3468.02,3090.11,3547.02,600.54,596.69,2.33,0000 0000 0000 0000 000000
2017-06-04 07:00:12,0.00,0.01,0.00,25.19,28.93,31.57,13.92,45.58,1024.43,2023.99,3468.00,3090.01,3546.99,600.30,596.50,2.38,0000 0000 0000 0000 000000
2017-06-04 07:05:13,0.00,0.01,0.00,25.21,28.96,31.59,13.88,45.59,1024.43,2023.99,3467.94,3089.99,3546.88,600.01,596.03,2.43,0000 0000 0000 0000 000000
2017-06-04 07:10:14,0.02,0.01,0.00,25.25,28.98,31.62,13.95,45.63,1024.43,2023.97,3467.41,3089.94,3546.21,599.97,596.19,2.48,0000 0000 0000 0000 000000
2017-06-04 07:15:16,0.00,0.01,0.00,25.27,29.01,31.65,13.97,45.59,1024.42,2023.89,3467.03,3089.51,3546.01,600.22,596.26,2.53,0000 0000 0000 0000 000000
2017-06-04 07:20:17,-0.02,0.01,0.00,25.29,29.03,31.68,13.85,45.54,1024.41,2023.56,3467.00,3089.09,3545.99,599.88,595.89,2.58,0000 0000 0000 0000 000000
2017-06-04 07:25:19,-0.03,0.01,0.00,25.31,29.05,31.71,13.87,45.63,1024.42,2023.13,3466.99,3089.00,3545.79,599.60,595.56,2.63,0000 0000 0000 0000 000000
2017-06-04 07:30:20,0.00,0.01,0.00,25.34,29.08,31.73,13.90,45.68,1024.42,2023.04,3466.89,3089.00,3545.18,600.52,596.41,2.68,0000 0000 0000 0000 000000
2017-06-04 07:35:21,0.01,0.01,0.00,25.39,29.10,31.75,13.87,45.61,1024.42,2023.01,3466.57,3089.00,3545.03,600.38,596.19,2.73,0000 0000 0000 0000 000000
2017-06-04 07:40:23,0.01,0.01,0.00,25.42,29.12,31.78,13.95,45.66,1024.41,2023.00,3466.09,3088.95,3545.00,599.86,595.52,2.78,0000 0000 0000 0000 000000
2017-06-04 07:45:24,0.00,0.01,0.00,25.44,29.15,31.80,13.89,45.52,1024.40,2023.00,3466.01,3088.75,3544.99,600.40,596.05,2.83,0000 0000 0000 0000 000000
2017-06-04 07:50:25,0.02,0.01,0.00,25.46,29.17,31.84,13.89,45.65,1024.36,2023.00,3466.00,3088.17,3544.83,600.18,595.87,2.88,0000 0000 0000 0000 000000
2017-06-04 07:55:26,0.00,0.01,0.00,25.48,29.19,31.86,13.98,45.63,1024.25,2022.98,3465.96,3088.02,3544.31,600.60,596.14,2.93,0000 0000 0000 0000 000000
2017-06-04 08:00:27,0.01,0.01,0.00,25.50,29.21,31.87,13.83,45.57,1024.18,2022.95,3465.55,3088.00,3544.03,600.03,595.52,2.98,0000 0000 0000 0000 000000
2017-06-04 08:05:28,-0.01,0.01,0.00,25.50,29.23,31.89,13.88,45.52,1023.98,2022.84,3465.15,3087.99,3544.00,599.81,594.97,3.03,0000 0000 0000 0000 000000
2017-06-04 08:10:30,-0.03,0.01,0.00,25.49,29.25,31.91,13.90,45.63,1023.98,2022.52,3465.02,3087.98,3543.98,600.19,595.56,3.08,0000 0000 0000 0000 000000
2017-06-04 08:15:31,-0.01,0.01,0.00,25.50,29.27,31.93,13.90,45.60,1024.06,2022.29,3465.00,3087.87,3543.96,600.08,595.49,3.13,0000 0000 0000 0000 000000
2017-06-04 08:20:32,0.00,0.01,0.00,25.52,29.28,31.94,13.86,45.48,1024.08,2022.18,3465.00,3087.71,3543.84,600.31,595.67,3.18,0000 0000 0000 0000 000000
2017-06-04 08:25:34,0.01,0.01,0.00,25.54,29.30,31.95,13.84,45.56,1024.02,2022.05,3464.98,3087.30,3543.38,600.00,595.19,3.23,0000 0000 0000 0000 000000
2017-06-04 08:30:35,0.00,0.01,0.00,25.57,29.30,31.96,13.88,45.56,1024.04,2022.04,3464.95,3087.13,3543.11,599.90,595.12,3.28,0000 0000 0000 0000 000000
2017-06-04 08:35:36,0.00,0.01,0.00,25.58,29.32,31.96,13.87,45.52,1024.00,2022.04,3464.87,3087.10,3543.04,600.22,595.35,3.33,0000 0000 0000 0000 000000
2017-06-04 08:40:37,0.00,0.01,0.00,25.59,29.32,31.98,13.92,45.49,1024.08,2022.01,3464.51,3087.02,3543.01,600.10,595.35,3.38,0000 0000 0000 0000 000000
2017-06-04 08:45:39,-0.00,0.01,0.00,25.60,29.32,31.99,13.88,45.42,1024.10,2022.00,3464.25,3087.00,3543.00,600.07,595.20,3.43,0000 0000 0000 0000 000000
2017-06-04 08:50:40,0.00,0.01,0.00,25.61,29.32,31.98,13.86,45.50,1024.20,2022.00,3464.16,3087.00,3543.00,599.94,595.18,3.48,0000 0000 0000 0000 000000
2017-06-04 08:55:42,0.00,0.01,0.00,25.62,29.34,31.97,13.90,45.51,1024.13,2022.00,3464.06,3087.00,3542.99,599.82,595.16,3.53,0000 0000 0000 0000 000000
2017-06-04 09:00:43,0.00,0.01,0.00,25.62,29.35,31.97,13.89,45.44,1024.10,2022.01,3464.02,3087.00,3542.99,600.00,595.24,3.58,0000 0000 0000 0000 000000
2017-06-04 09:05:44,-0.00,0.01,0.00,25.63,29.35,31.98,13.87,45.42,1024.08,2022.00,3464.04,3087.00,3542.98,600.12,595.11,3.63,0000 0000 0000 0000 000000
2017-06-04 09:10:45,0.00,0.01,0.00,25.65,29.35,31.98,13.88,45.48,1024.08,2022.00,3464.01,3087.00,3542.98,599.86,595.04,3.68,0000 0000 0000 0000 000000
2017-06-04 09:15:47,0.00,0.01,0.00,25.68,29.35,31.97,13.85,45.32,1024.02,2022.00,3464.01,3087.00,3542.98,600.02,595.07,3.73,0000 0000 0000 0000 000000
2017-06-04 09:20:48,0.00,0.01,0.00,25.70,29.35,31.96,13.81,45.42,1023.96,2022.00,3464.01,3087.00,3542.97,599.51,594.33,3.78,0000 0000 0000 0000 000000
2017-06-04 09:25:49,0.00,0.01,0.00,25.72,29.35,31.95,13.97,45.49,1023.94,2022.00,3464.00,3087.00,3542.95,600.36,595.28,3.83,0000 0000 0000 0000 000000
2017-06-04 09:30:50,0.00,0.01,0.00,25.75,29.35,31.94,13.91,45.35,1023.94,2022.00,3464.00,3087.00,3542.94,600.28,595.06,3.88,0000 0000 0000 0000 000000
2017-06-04 09:35:52,0.00,0.01,0.00,25.75,29.35,31.94,13.83,45.33,1023.94,2022.00,3464.00,3087.00,3542.94,599.92,594.83,3.93,0000 0000 0000 0000 000000
2017-06-04 09:40:53,0.00,0.01,0.00,25.76,29.35,31.95,13.95,45.41,1023.94,2021.99,3464.00,3086.99,3542.72,600.19,595.02,3.98,0000 0000 0000 0000 000000
2017-06-04 09:45:54,0.00,0.01,0.00,25.77,29.35,31.94,13.81,45.39,1023.94,2021.99,3464.00,3086.99,3542.83,599.86,594.48,4.03,0000 0000 0000 0000 000000
2017-06-04 09:50:55,0.00,0.01,0.00,25.79,29.35,31.94,13.91,45.32,1023.94,2021.99,3464.00,3086.99,3542.79,600.16,594.92,4.08,0000 0000 0000 0000 000000
2017-06-04 09:55:57,-0.00,0.01,0.00,25.81,29.35,31.93,13.81,45.31,1023.93,2021.99,3464.00,3086.99,3542.76,599.81,594.44,4.14,0000 0000 0000 0000 000000
2017-06-04 10:00:58,0.00,0.01,0.00,25.81,29.35,31.93,13.92,45.34,1023.92,2021.99,3464.00,3086.99,3542.61,600.12,594.80,4.19,0000 0000 0000 0000 000000
2017-06-04 10:05:59,0.01,0.01,0.00,25.80,29.35,31.92,13.84,45.35,1023.82,2021.99,3463.98,3086.99,3542.30,599.91,594.51,4.24,0000 0000 0000 0000 000000
2017-06-04 10:11:00,0.00,0.01,0.00,25.82,29.35,31.94,13.85,45.33,1023.72,2021.99,3463.96,3086.98,3542.07,600.15,594.68,4.29,0000 0000 0000 0000 000000
2017-06-04 10:16:01,0.00,0.01,0.00,25.83,29.35,31.93,13.72,45.19,1023.77,2021.99,3463.98,3086.99,3542.16,599.74,594.28,4.34,0000 0000 0000 0000 000000
2017-06-04 10:21:03,0.00,0.01,0.00,25.81,29.35,31.95,13.91,45.23,1023.64,2021.99,3463.97,3086.98,3542.18,600.27,594.66,4.39,0000 0000 0000 0000 000000
2017-06-04 10:26:04,0.00,0.01,0.00,25.80,29.35,31.95,13.87,45.34,1023.68,2021.99,3463.81,3086.97,3542.04,600.03,594.50,4.44,0000 0000 0000 0000 000000
2017-06-04 10:31:05,-0.00,0.01,0.00,25.80,29.37,31.97,13.87,45.30,1023.57,2021.99,3463.84,3086.97,3542.02,599.89,594.43,4.49,0000 0000 0000 0000 000000
2017-06-04 10:36:06,-0.00,0.01,0.00,25.78,29.37,31.97,13.86,45.27,1023.52,2021.99,3463.94,3086.96,3542.02,599.95,594.49,4.54,0000 0000 0000 0000 000000
2017-06-04 10:41:08,0.00,0.01,0.00,25.76,29.37,31.98,13.85,45.23,1023.47,2021.99,3463.93,3086.98,3542.03,599.94,594.27,4.59,0000 0000 0000 0000 000000
2017-06-04 10:46:09,0.00,0.01,0.00,25.74,29.37,31.98,13.83,45.28,1023.48,2021.99,3463.88,3086.98,3542.02,600.02,594.57,4.64,0000 0000 0000 0000 000000
2017-06-04 10:51:10,0.00,0.01,0.00,25.75,29.37,31.98,13.82,45.17,1023.48,2021.99,3463.72,3086.98,3542.01,599.99,594.51,4.69,0000 0000 0000 0000 000000
2017-06-04 10:56:11,0.00,0.01,0.00,25.76,29.37,31.97,13.89,45.39,1023.46,2021.99,3463.36,3086.96,3542.00,599.89,594.51,4.74,0000 0000 0000 0000 000000
2017-06-04 11:01:12,0.00,0.01,0.00,25.74,29.37,31.97,13.82,45.33,1023.45,2021.99,3463.22,3086.89,3542.00,599.63,594.17,4.79,0000 0000 0000 0000 000000
2017-06-04 11:06:13,0.00,0.01,0.00,25.71,29.37,31.99,13.84,45.31,1023.45,2021.99,3463.07,3086.77,3542.00,600.14,594.71,4.84,0000 0000 0000 0000 000000
2017-06-04 11:11:14,0.00,0.01,0.00,25.67,29.37,32.00,13.82,45.27,1023.45,2021.99,3463.03,3086.73,3542.00,599.64,594.37,4.89,0000 0000 0000 0000 000000
2017-06-04 11:16:15,0.01,0.01,0.00,25.65,29.37,32.01,13.87,45.29,1023.45,2021.98,3463.01,3086.41,3541.99,600.02,594.67,4.94,0000 0000 0000 0000 000000
2017-06-04 11:21:17,-0.01,0.01,0.00,25.62,29.37,32.01,13.85,45.33,1023.45,2021.99,3463.00,3086.55,3541.99,599.96,594.63,4.99,0000 0000 0000 0000 000000
2017-06-04 11:26:18,-0.00,0.01,0.00,25.61,29.37,32.01,13.82,45.27,1023.45,2021.99,3463.00,3086.58,3541.99,599.85,594.62,5.04,0000 0000 0000 0000 000000
2017-06-04 11:31:19,0.00,0.01,0.00,25.58,29.37,32.02,13.91,45.29,1023.45,2021.99,3463.00,3086.55,3541.99,599.75,594.55,5.09,0000 0000 0000 0000 000000
2017-06-04 11:36:20,-0.00,0.01,0.00,25.55,29.37,32.02,13.81,45.19,1023.45,2021.99,3463.00,3086.76,3541.99,600.56,595.38,5.14,0000 0000 0000 0000 000000
2017-06-04 11:41:21,-0.00,0.01,0.00,25.53,29.37,32.03,13.91,45.41,1023.45,2021.99,3463.00,3086.84,3541.99,600.25,595.11,5.19,0000 0000 0000 0000 000000
2017-06-04 11:46:22,0.00,0.01,0.00,25.49,29.37,32.03,13.82,45.17,1023.45,2021.99,3463.00,3086.79,3541.99,599.96,595.02,5.24,0000 0000 0000 0000 000000
2017-06-04 11:51:24,-0.00,0.01,0.00,25.46,29.35,32.03,13.83,45.36,1023.45,2021.99,3463.00,3086.86,3541.99,599.43,594.68,5.29,0000 0000 0000 0000 000000
2017-06-04 11:56:25,0.00,0.01,0.00,25.43,29.35,32.05,13.82,45.20,1023.45,2021.99,3463.00,3086.91,3541.99,599.43,594.70,5.34,0000 0000 0000 0000 000000
2017-06-04 12:01:26,0.00,0.01,0.00,25.40,29.35,32.07,13.90,45.27,1023.44,2021.99,3463.00,3086.88,3541.99,599.84,595.05,5.39,0000 0000 0000 0000 000000
2017-06-04 12:06:27,0.00,0.01,0.00,25.37,29.35,32.06,13.91,45.37,1023.36,2022.00,3463.00,3086.93,3541.99,600.11,595.31,5.44,0000 0000 0000 0000 000000
2017-06-04 12:11:28,0.00,0.01,0.00,25.35,29.34,32.05,13.91,45.33,1023.21,2022.01,3463.00,3086.95,3541.99,600.04,595.24,5.49,0000 0000 0000 0000 000000
2017-06-04 12:16:29,0.00,0.01,0.00,25.32,29.32,32.02,13.94,45.23,1023.07,2022.01,3463.00,3086.94,3541.99,600.26,595.47,5.54,0000 0000 0000 0000 000000
2017-06-04 12:21:30,-0.00,0.01,0.00,25.29,29.32,32.05,13.82,45.23,1023.00,2022.01,3463.00,3086.97,3541.99,599.53,594.70,5.59,0000 0000 0000 0000 000000
2017-06-04 12:26:31,0.00,0.01,0.00,25.27,29.30,32.02,13.96,45.34,1022.97,2022.01,3463.00,3086.97,3542.00,600.11,595.26,5.64,0000 0000 0000 0000 000000
2017-06-04 12:31:33,0.01,0.01,0.00,25.25,29.30,32.02,13.98,45.35,1022.97,2022.04,3463.01,3086.99,3542.01,600.19,595.30,5.69,0000 0000 0000 0000 000000
2017-06-04 12:36:34,-0.00,0.01,0.00,25.23,29.29,32.01,13.91,45.30,1022.96,2022.05,3463.00,3086.98,3542.01,599.84,595.23,5.74,0000 0000 0000 0000 000000
2017-06-04 12:41:35,0.01,0.01,0.00,25.21,29.27,32.03,13.89,45.21,1022.96,2022.10,3463.00,3086.98,3542.02,599.92,595.19,5.79,0000 0000 0000 0000 000000
2017-06-04 12:46:36,0.01,0.01,0.00,25.20,29.26,31.99,13.93,45.30,1022.93,2022.19,3463.00,3086.99,3542.02,600.51,595.90,5.84,0000 0000 0000 0000 000000
2017-06-04 12:51:37,0.02,0.01,0.00,25.17,29.25,32.00,13.95,45.38,1022.84,2022.39,3463.00,3086.99,3542.01,599.91,595.24,5.89,0000 0000 0000 0000 000000
2017-06-04 12:56:39,0.01,0.02,0.00,25.15,29.24,31.97,13.89,45.36,1022.74,2022.56,3463.00,3086.99,3542.02,600.56,595.80,5.94,0000 0000 0000 0000 000000